Darstellungsparameter: Aktuell verwendete Einstellungen:
Skalierung der Graphiken ... ?
xyx+y,   Skalierungsfaktor:      Skalierung: Modus: x, Faktor: 1
Darstellungszeitraum ... ?
Vom - - bis: - -   Zeitraum: 18.02.2020 - 18.02.2020
Min/Max/Avg-Anzeige ... ?
Zeige MMA aktuell
Zeige MMA Monat
Zeige MMA alles
Zeige --A aktuell
Zeige --A Monat
Zeige --A alles
Keine MMA-Anzeige
MMA:
Average (ber die Originaldaten)
MMA-Basis: 23.02.2003 - 19.08.2019
Quicknavigation für Darstellung... ?
Tage:      1T, 2T, 3T, 5T -1T -2T -3T -5T +1T +2T +3T +5T
Wochen: 1W, 2W, 3W -1W -2W -3W +1W +2W +3W
Monate: 1M, 3M, 6M -1M -3M -6M +1M +3M +6M
Jahre:    1J, 3J, 5J, 10J -1J -3J -5J -10J +1J +3J +5J +10J
Nutze für die Darstellung ... ?
Originaldaten oder Mittelwerte auf ...
Stundenbasis Tagesbasis Wochenbasis
Monatsbasis Jahresbasis      Datenbasis: Original-Daten
Darstellen als:
Statistik (Auto) Statistik J:M      Darstellung:
Zur Graphik,    zurück zur Übersicht aller Sensoren.
 
Tabellarische Datenbersicht: ?
 
Sensor: Nr:Datum:Temp:Feuchte:Taupunkt:
Aussen-T/F 1 18-02-2020 00:00:00 7.8 C 83 % 5.1 C
2 18-02-2020 00:05:00 7.8 C 82 % 4.92 C
3 18-02-2020 00:10:00 7.9 C 82 % 5.02 C
4 18-02-2020 00:15:00 8 C 81 % 4.94 C
5 18-02-2020 00:20:00 8 C 81 % 4.94 C
6 18-02-2020 00:25:00 8 C 80 % 4.77 C
7 18-02-2020 00:30:00 8.1 C 80 % 4.86 C
8 18-02-2020 00:35:00 8.1 C 79 % 4.68 C
9 18-02-2020 00:40:00 8.1 C 79 % 4.68 C
10 18-02-2020 00:45:00 8.2 C 79 % 4.78 C
11 18-02-2020 00:50:00 8.2 C 79 % 4.78 C
12 18-02-2020 00:55:00 8.1 C 79 % 4.68 C
13 18-02-2020 01:00:00 8.1 C 79 % 4.68 C
14 18-02-2020 01:05:00 8.2 C 78 % 4.6 C
15 18-02-2020 01:10:00 8.2 C 78 % 4.6 C
16 18-02-2020 01:15:00 8.2 C 79 % 4.78 C
17 18-02-2020 01:20:00 8.2 C 79 % 4.78 C
18 18-02-2020 01:25:00 8.1 C 79 % 4.68 C
19 18-02-2020 01:30:00 8.1 C 79 % 4.68 C
20 18-02-2020 01:35:00 8 C 80 % 4.77 C
21 18-02-2020 01:40:00 8 C 80 % 4.77 C
22 18-02-2020 01:45:00 7.9 C 81 % 4.85 C
23 18-02-2020 01:50:00 7.9 C 81 % 4.85 C
24 18-02-2020 01:55:00 7.9 C 81 % 4.85 C
25 18-02-2020 02:00:00 7.8 C 81 % 4.75 C
Sensor: Nr:Datum:Temp:Feuchte:Taupunkt:
Aussen-T/F 26 18-02-2020 02:05:00 7.8 C 81 % 4.75 C
27 18-02-2020 02:10:00 7.8 C 81 % 4.75 C
28 18-02-2020 02:15:00 7.8 C 81 % 4.75 C
29 18-02-2020 02:20:00 7.7 C 81 % 4.65 C
30 18-02-2020 02:25:00 7.6 C 81 % 4.55 C
31 18-02-2020 02:30:00 7.6 C 81 % 4.55 C
32 18-02-2020 02:35:00 7.5 C 81 % 4.46 C
33 18-02-2020 02:40:00 7.4 C 81 % 4.36 C
34 18-02-2020 02:45:00 7.4 C 81 % 4.36 C
35 18-02-2020 02:50:00 7.3 C 81 % 4.26 C
36 18-02-2020 02:55:00 7.3 C 82 % 4.44 C
37 18-02-2020 03:00:00 7.3 C 82 % 4.44 C
38 18-02-2020 03:05:00 7.3 C 82 % 4.44 C
39 18-02-2020 03:10:00 7.3 C 82 % 4.44 C
40 18-02-2020 03:15:00 7.4 C 82 % 4.53 C
41 18-02-2020 03:20:00 7.5 C 81 % 4.46 C
42 18-02-2020 03:25:00 7.6 C 80 % 4.38 C
43 18-02-2020 03:30:00 7.6 C 81 % 4.55 C
44 18-02-2020 03:35:00 7.6 C 81 % 4.55 C
45 18-02-2020 03:40:00 7.5 C 80 % 4.28 C
46 18-02-2020 03:45:00 7.4 C 81 % 4.36 C
47 18-02-2020 03:50:00 7.3 C 81 % 4.26 C
48 18-02-2020 03:55:00 7.2 C 82 % 4.34 C
49 18-02-2020 04:00:00 7.2 C 82 % 4.34 C
50 18-02-2020 04:05:00 7.1 C 82 % 4.24 C
Sensor: Nr:Datum:Temp:Feuchte:Taupunkt:
Aussen-T/F 51 18-02-2020 04:10:00 6.9 C 82 % 4.05 C
52 18-02-2020 04:15:00 6.8 C 82 % 3.95 C
53 18-02-2020 04:20:00 6.8 C 82 % 3.95 C
54 18-02-2020 04:25:00 6.8 C 82 % 3.95 C
55 18-02-2020 04:30:00 6.8 C 82 % 3.95 C
56 18-02-2020 04:35:00 6.7 C 82 % 3.85 C
57 18-02-2020 04:40:00 6.7 C 83 % 4.02 C
58 18-02-2020 04:45:00 6.7 C 83 % 4.02 C
59 18-02-2020 04:50:00 6.7 C 83 % 4.02 C
60 18-02-2020 04:55:00 6.6 C 82 % 3.75 C
61 18-02-2020 05:00:00 6.6 C 83 % 3.92 C
62 18-02-2020 05:05:00 6.6 C 82 % 3.75 C
63 18-02-2020 05:10:00 6.5 C 82 % 3.66 C
64 18-02-2020 05:15:00 6.4 C 83 % 3.73 C
65 18-02-2020 05:20:00 6.4 C 83 % 3.73 C
66 18-02-2020 05:25:00 6.3 C 83 % 3.63 C
67 18-02-2020 05:30:00 6.4 C 83 % 3.73 C
68 18-02-2020 05:35:00 6.3 C 83 % 3.63 C
69 18-02-2020 05:40:00 6.3 C 83 % 3.63 C
70 18-02-2020 05:45:00 6.3 C 83 % 3.63 C
71 18-02-2020 05:50:00 6.3 C 83 % 3.63 C
72 18-02-2020 05:55:00 6.2 C 84 % 3.7 C
73 18-02-2020 06:00:00 6.2 C 84 % 3.7 C
74 18-02-2020 06:05:00 6.2 C 84 % 3.7 C
75 18-02-2020 06:10:00 6.1 C 84 % 3.61 C
Sensor: Nr:Datum:Temp:Feuchte:Taupunkt:
Aussen-T/F 76 18-02-2020 06:15:00 6.1 C 84 % 3.61 C
77 18-02-2020 06:20:00 6 C 85 % 3.67 C
78 18-02-2020 06:25:00 6.1 C 85 % 3.77 C
79 18-02-2020 06:30:00 6.2 C 85 % 3.87 C
80 18-02-2020 06:35:00 6.2 C 84 % 3.7 C
81 18-02-2020 06:40:00 6.2 C 84 % 3.7 C
82 18-02-2020 06:45:00 6.1 C 84 % 3.61 C
83 18-02-2020 06:50:00 6.1 C 84 % 3.61 C
84 18-02-2020 06:55:00 6.1 C 84 % 3.61 C
85 18-02-2020 07:00:00 5.9 C 84 % 3.41 C
86 18-02-2020 07:05:00 5.9 C 84 % 3.41 C
87 18-02-2020 07:10:00 5.8 C 84 % 3.31 C
88 18-02-2020 07:15:00 5.8 C 85 % 3.48 C
89 18-02-2020 07:20:00 5.9 C 85 % 3.58 C
90 18-02-2020 07:25:00 5.9 C 85 % 3.58 C
91 18-02-2020 07:30:00 5.9 C 85 % 3.58 C
92 18-02-2020 07:35:00 5.8 C 85 % 3.48 C
93 18-02-2020 07:40:00 5.8 C 85 % 3.48 C
94 18-02-2020 07:45:00 5.8 C 85 % 3.48 C
95 18-02-2020 07:50:00 5.8 C 85 % 3.48 C
96 18-02-2020 07:55:00 5.8 C 85 % 3.48 C
97 18-02-2020 08:00:00 5.8 C 85 % 3.48 C
98 18-02-2020 08:05:00 5.8 C 85 % 3.48 C
99 18-02-2020 08:10:00 5.7 C 85 % 3.38 C
100 18-02-2020 08:15:00 5.7 C 84 % 3.21 C
Sensor: Nr:Datum:Temp:Feuchte:Taupunkt:
Aussen-T/F 101 18-02-2020 08:20:00 5.7 C 84 % 3.21 C
102 18-02-2020 08:25:00 5.7 C 85 % 3.38 C
103 18-02-2020 08:30:00 5.7 C 86 % 3.55 C
104 18-02-2020 08:35:00 5.7 C 86 % 3.55 C
105 18-02-2020 08:40:00 5.8 C 86 % 3.64 C
106 18-02-2020 08:45:00 5.8 C 86 % 3.64 C
107 18-02-2020 08:50:00 5.8 C 85 % 3.48 C
108 18-02-2020 08:55:00 5.8 C 85 % 3.48 C
109 18-02-2020 09:00:00 5.8 C 85 % 3.48 C
110 18-02-2020 09:05:00 5.9 C 85 % 3.58 C
111 18-02-2020 09:10:00 5.9 C 86 % 3.74 C
112 18-02-2020 09:15:00 5.9 C 86 % 3.74 C
113 18-02-2020 09:20:00 6 C 85 % 3.67 C
114 18-02-2020 09:25:00 6.1 C 85 % 3.77 C
115 18-02-2020 09:30:00 6.1 C 84 % 3.61 C
116 18-02-2020 09:35:00 6.2 C 84 % 3.7 C
117 18-02-2020 09:40:00 6.2 C 84 % 3.7 C
118 18-02-2020 09:45:00 6.3 C 84 % 3.8 C
119 18-02-2020 09:50:00 6.4 C 83 % 3.73 C
120 18-02-2020 09:55:00 6.6 C 83 % 3.92 C
121 18-02-2020 10:00:00 6.6 C 82 % 3.75 C
122 18-02-2020 10:05:00 6.7 C 81 % 3.68 C
123 18-02-2020 10:10:00 6.7 C 81 % 3.68 C
124 18-02-2020 10:15:00 6.7 C 81 % 3.68 C
125 18-02-2020 10:20:00 6.7 C 81 % 3.68 C
Sensor: Nr:Datum:Temp:Feuchte:Taupunkt:
Aussen-T/F 126 18-02-2020 10:25:00 6.6 C 81 % 3.58 C
127 18-02-2020 10:30:00 6.7 C 81 % 3.68 C
128 18-02-2020 10:35:00 6.8 C 80 % 3.6 C
129 18-02-2020 10:40:00 6.8 C 80 % 3.6 C
130 18-02-2020 10:45:00 6.9 C 79 % 3.52 C
131 18-02-2020 10:50:00 7 C 79 % 3.61 C
132 18-02-2020 10:55:00 7.1 C 79 % 3.71 C
133 18-02-2020 11:00:00 7.2 C 79 % 3.81 C
134 18-02-2020 11:05:00 7.3 C 79 % 3.91 C
135 18-02-2020 11:10:00 7.3 C 79 % 3.91 C
136 18-02-2020 11:15:00 7.3 C 78 % 3.73 C
137 18-02-2020 11:20:00 7.3 C 78 % 3.73 C
138 18-02-2020 11:25:00 7.3 C 78 % 3.73 C
139 18-02-2020 11:30:00 7.4 C 78 % 3.82 C
140 18-02-2020 11:35:00 7.5 C 78 % 3.92 C
141 18-02-2020 11:40:00 7.6 C 77 % 3.83 C
142 18-02-2020 11:45:00 7.7 C 77 % 3.93 C
143 18-02-2020 11:50:00 7.7 C 77 % 3.93 C
144 18-02-2020 11:55:00 7.8 C 77 % 4.03 C
145 18-02-2020 12:00:00 7.8 C 77 % 4.03 C
146 18-02-2020 12:05:00 7.8 C 77 % 4.03 C
147 18-02-2020 12:10:00 7.9 C 77 % 4.12 C
148 18-02-2020 12:15:00 8.1 C 77 % 4.32 C
149 18-02-2020 12:20:00 8.1 C 77 % 4.32 C
150 18-02-2020 12:25:00 8.1 C 75 % 3.94 C
Sensor: Nr:Datum:Temp:Feuchte:Taupunkt:
Aussen-T/F 151 18-02-2020 12:30:00 8.1 C 75 % 3.94 C
152 18-02-2020 12:35:00 8.1 C 75 % 3.94 C
153 18-02-2020 12:40:00 8.1 C 74 % 3.75 C
154 18-02-2020 12:45:00 8.1 C 75 % 3.94 C
155 18-02-2020 12:50:00 8.2 C 76 % 4.23 C
156 18-02-2020 12:55:00 8.4 C 74 % 4.04 C
157 18-02-2020 13:00:00 8.6 C 75 % 4.43 C
158 18-02-2020 13:05:00 8.8 C 74 % 4.43 C
159 18-02-2020 13:10:00 8.8 C 74 % 4.43 C
160 18-02-2020 13:15:00 8.8 C 72 % 4.04 C
161 18-02-2020 13:20:00 8.6 C 73 % 4.04 C
162 18-02-2020 13:25:00 8.5 C 74 % 4.14 C
163 18-02-2020 13:30:00 8.4 C 74 % 4.04 C
164 18-02-2020 13:35:00 8.3 C 75 % 4.14 C
165 18-02-2020 13:40:00 8.3 C 76 % 4.33 C
166 18-02-2020 13:45:00 8.4 C 76 % 4.42 C
167 18-02-2020 13:50:00 8.6 C 75 % 4.43 C
168 18-02-2020 13:55:00 8.6 C 73 % 4.04 C
169 18-02-2020 14:00:00 8.5 C 74 % 4.14 C
170 18-02-2020 14:05:00 8.4 C 74 % 4.04 C
171 18-02-2020 14:10:00 8.4 C 75 % 4.23 C
172 18-02-2020 14:15:00 8.4 C 76 % 4.42 C
173 18-02-2020 14:20:00 8.3 C 76 % 4.33 C
174 18-02-2020 14:25:00 8.3 C 76 % 4.33 C
175 18-02-2020 14:30:00 8.2 C 76 % 4.23 C
Sensor: Nr:Datum:Temp:Feuchte:Taupunkt:
Aussen-T/F 176 18-02-2020 14:35:00 8.2 C 76 % 4.23 C
177 18-02-2020 14:40:00 8.2 C 75 % 4.04 C
178 18-02-2020 14:45:00 8.1 C 76 % 4.13 C
179 18-02-2020 14:50:00 8.2 C 75 % 4.04 C
180 18-02-2020 14:55:00 8.3 C 74 % 3.95 C
181 18-02-2020 15:00:00 8.4 C 75 % 4.23 C
182 18-02-2020 15:05:00 8.6 C 73 % 4.04 C
183 18-02-2020 15:10:00 8.7 C 73 % 4.14 C
184 18-02-2020 15:15:00 8.7 C 74 % 4.33 C
185 18-02-2020 15:20:00 8.7 C 73 % 4.14 C
186 18-02-2020 15:25:00 8.7 C 72 % 3.94 C
187 18-02-2020 15:30:00 8.6 C 72 % 3.85 C
188 18-02-2020 15:35:00 8.6 C 72 % 3.85 C
189 18-02-2020 15:40:00 8.6 C 73 % 4.04 C
190 18-02-2020 15:45:00 8.6 C 73 % 4.04 C
191 18-02-2020 15:50:00 8.5 C 73 % 3.95 C
192 18-02-2020 15:55:00 8.5 C 73 % 3.95 C
193 18-02-2020 16:00:00 8.6 C 73 % 4.04 C
194 18-02-2020 16:05:00 8.6 C 72 % 3.85 C
195 18-02-2020 16:10:00 8.6 C 73 % 4.04 C
196 18-02-2020 16:15:00 8.6 C 73 % 4.04 C
197 18-02-2020 16:20:00 8.4 C 73 % 3.85 C
198 18-02-2020 16:25:00 8.4 C 73 % 3.85 C
199 18-02-2020 16:30:00 8.4 C 74 % 4.04 C
200 18-02-2020 16:35:00 8.3 C 74 % 3.95 C
Sensor: Nr:Datum:Temp:Feuchte:Taupunkt:
Aussen-T/F 201 18-02-2020 16:40:00 8.3 C 74 % 3.95 C
202 18-02-2020 16:45:00 8.3 C 74 % 3.95 C
203 18-02-2020 16:50:00 8.2 C 74 % 3.85 C
204 18-02-2020 16:55:00 8.2 C 75 % 4.04 C
205 18-02-2020 17:00:00 8.2 C 75 % 4.04 C
206 18-02-2020 17:05:00 8.2 C 76 % 4.23 C
207 18-02-2020 17:10:00 8.1 C 76 % 4.13 C
208 18-02-2020 17:15:00 8.1 C 76 % 4.13 C
209 18-02-2020 17:20:00 8.1 C 76 % 4.13 C
210 18-02-2020 17:25:00 8.2 C 76 % 4.23 C
211 18-02-2020 17:30:00 8.2 C 75 % 4.04 C
212 18-02-2020 17:35:00 8.2 C 75 % 4.04 C
213 18-02-2020 17:40:00 8.2 C 76 % 4.23 C
214 18-02-2020 17:45:00 8.1 C 76 % 4.13 C
215 18-02-2020 17:50:00 8 C 76 % 4.04 C
216 18-02-2020 17:55:00 7.9 C 76 % 3.94 C
217 18-02-2020 18:00:00 7.8 C 77 % 4.03 C
218 18-02-2020 18:05:00 7.8 C 78 % 4.21 C
219 18-02-2020 18:10:00 7.7 C 78 % 4.11 C
220 18-02-2020 18:15:00 7.7 C 78 % 4.11 C
221 18-02-2020 18:20:00 7.6 C 79 % 4.2 C
222 18-02-2020 18:25:00 7.4 C 79 % 4 C
223 18-02-2020 18:30:00 7.4 C 79 % 4 C
224 18-02-2020 18:35:00 7.3 C 79 % 3.91 C
225 18-02-2020 18:40:00 7.2 C 80 % 3.99 C
Sensor: Nr:Datum:Temp:Feuchte:Taupunkt:
Aussen-T/F 226 18-02-2020 18:45:00 7.1 C 80 % 3.89 C
227 18-02-2020 18:50:00 7 C 81 % 3.97 C
228 18-02-2020 18:55:00 6.9 C 81 % 3.87 C
229 18-02-2020 19:00:00 6.8 C 81 % 3.77 C
230 18-02-2020 19:05:00 6.7 C 82 % 3.85 C
231 18-02-2020 19:10:00 6.6 C 82 % 3.75 C
232 18-02-2020 19:15:00 6.4 C 82 % 3.56 C
233 18-02-2020 19:20:00 6.3 C 82 % 3.46 C
234 18-02-2020 19:25:00 6.2 C 83 % 3.53 C
235 18-02-2020 19:30:00 6.1 C 84 % 3.61 C
236 18-02-2020 19:35:00 6.1 C 84 % 3.61 C
237 18-02-2020 19:40:00 6.1 C 84 % 3.61 C
238 18-02-2020 19:45:00 6.2 C 84 % 3.7 C
239 18-02-2020 19:50:00 6.2 C 84 % 3.7 C
240 18-02-2020 19:55:00 6.2 C 84 % 3.7 C
241 18-02-2020 20:00:00 6.3 C 84 % 3.8 C
242 18-02-2020 20:05:00 6.3 C 84 % 3.8 C
243 18-02-2020 20:10:00 6.3 C 83 % 3.63 C
244 18-02-2020 20:15:00 6.2 C 83 % 3.53 C
245 18-02-2020 20:20:00 6.2 C 84 % 3.7 C
246 18-02-2020 20:25:00 6.3 C 84 % 3.8 C
247 18-02-2020 20:30:00 6.6 C 83 % 3.92 C
248 18-02-2020 20:35:00 6.8 C 82 % 3.95 C
249 18-02-2020 20:40:00 6.9 C 82 % 4.05 C
250 18-02-2020 20:45:00 6.9 C 82 % 4.05 C
Sensor: Nr:Datum:Temp:Feuchte:Taupunkt:
Aussen-T/F 251 18-02-2020 20:50:00 6.9 C 82 % 4.05 C
252 18-02-2020 20:55:00 6.8 C 82 % 3.95 C
253 18-02-2020 21:00:00 6.8 C 82 % 3.95 C
254 18-02-2020 21:05:00 6.8 C 82 % 3.95 C
255 18-02-2020 21:10:00 6.8 C 82 % 3.95 C
256 18-02-2020 21:15:00 6.8 C 82 % 3.95 C
257 18-02-2020 21:20:00 6.8 C 82 % 3.95 C
258 18-02-2020 21:25:00 6.8 C 83 % 4.12 C
259 18-02-2020 21:30:00 6.9 C 82 % 4.05 C
260 18-02-2020 21:35:00 6.9 C 82 % 4.05 C
261 18-02-2020 21:40:00 6.8 C 82 % 3.95 C
262 18-02-2020 21:45:00 6.8 C 82 % 3.95 C
263 18-02-2020 21:50:00 6.9 C 83 % 4.22 C
264 18-02-2020 21:55:00 7 C 83 % 4.32 C
265 18-02-2020 22:00:00 7 C 82 % 4.14 C
266 18-02-2020 22:05:00 7 C 82 % 4.14 C
267 18-02-2020 22:10:00 7.2 C 82 % 4.34 C
268 18-02-2020 22:15:00 7.3 C 82 % 4.44 C
269 18-02-2020 22:20:00 7.4 C 82 % 4.53 C
270 18-02-2020 22:25:00 7.4 C 82 % 4.53 C
271 18-02-2020 22:30:00 7.4 C 82 % 4.53 C
272 18-02-2020 22:35:00 7.4 C 83 % 4.71 C
273 18-02-2020 22:40:00 7.4 C 83 % 4.71 C
274 18-02-2020 22:45:00 7.4 C 83 % 4.71 C
275 18-02-2020 22:50:00 7.3 C 83 % 4.61 C
Sensor: Nr:Datum:Temp:Feuchte:Taupunkt:
Aussen-T/F 276 18-02-2020 22:55:00 7.3 C 83 % 4.61 C
277 18-02-2020 23:00:00 7.3 C 83 % 4.61 C
278 18-02-2020 23:05:00 7.3 C 83 % 4.61 C
279 18-02-2020 23:10:00 7.3 C 83 % 4.61 C
280 18-02-2020 23:15:00 7.3 C 83 % 4.61 C
281 18-02-2020 23:20:00 7.2 C 83 % 4.51 C
282 18-02-2020 23:25:00 7.2 C 83 % 4.51 C
283 18-02-2020 23:30:00 7.1 C 84 % 4.58 C
284 18-02-2020 23:35:00 7.1 C 84 % 4.58 C
285 18-02-2020 23:40:00 7 C 84 % 4.49 C
286 18-02-2020 23:45:00 7.1 C 84 % 4.58 C
287 18-02-2020 23:50:00 7.1 C 84 % 4.58 C
288 18-02-2020 23:55:00 7.1 C 84 % 4.58 C

Legende:
   Min
   Max


Maximal/Minimal-Werte vom 23.02.2003 - 19.08.2019

Sensor Min Max Avg
Temp
(Aussen-T/F)
-16.4 °C
20-12-2009  01:30:01
40.4 °C
25-07-2019  16:20:00
11.22 °C
Feuchte
(Aussen-T/F)
18 %
17-07-2015  15:55:00
100 %
07-10-2012  03:05:00
76.99 %

Die Daten stammen von einer Davis Vantage Pro 2 Wetter-Station und werden unter Linux mit der Software wview2wettercgi und aufbereitet. Alle Angaben erfolgen ohne Gewähr für ihre Vollständigkeit oder Richtigkeit.
Kontakt: Rainer Krienke krienke@uni-koblenz.de . Meine Webseiten an der Uni Koblenz oder privat.
Version: $Revision: 0.78 $